FW8857 Weather Reports


time (UTC)temp
F
wind
direction
speed
knots
gust
knots
rain 1hr
in
rain 24hr
in
rain mn
in
humidity
%
barometer
mb
20260507105559 53 5 4.3 8.7 0.00 0.00 0.00 76 1020.3
20260507105059 53 30 4.3 7.8 0.00 0.00 0.00 76 1020.4
20260507104559 53 17 5.2 12.2 0.00 0.00 0.00 76 1020.4
20260507104059 53 307 5.2 12.2 0.00 0.00 0.00 76 1020.4
20260507103559 53 297 4.3 8.7 0.00 0.00 0.00 76 1020.5
20260507103059 53 357 3.5 7.8 0.00 0.00 0.00 76 1020.5
20260507102559 53 16 4.3 7.8 0.00 0.00 0.00 76 1020.5
20260507102549 53 12 4.3 7.8 0.00 0.00 0.00 76 1020.5
20260507101820 53 9 3.5 7.8 0.00 0.00 0.00 76 1020.6
20260507101058 53 12 3.5 7.8 0.00 0.00 0.00 76 1020.6
20260507100557 53 12 3.5 7.8 0.00 0.00 0.00 77 1020.6
20260507100324 53 5 3.5 7.8 0.00 0.00 0.00 77 1020.6
20260507095817 53 357 3.5 5.2 0.00 0.00 0.00 77 1020.7
20260507095057 53 8 3.5 7.8 0.00 0.00 0.00 77 1020.7
20260507094557 53 313 3.5 7.8 0.00 0.00 0.00 77 1020.7
20260507094320 54 4 2.6 7.8 0.00 0.00 0.00 77 1020.7
20260507093557 54 326 2.6 4.3 0.00 0.00 0.00 78 1020.8
20260507093057 54 6 3.5 7.8 0.00 0.00 0.00 77 1020.8
20260507092823 54 351 3.5 7.8 0.00 0.00 0.00 77 1020.8
20260507092057 54 309 3.5 7.8 0.00 0.00 0.00 77 1020.9
20260507091557 54 343 3.5 7.8 0.00 0.00 0.00 77 1020.9
20260507091055 54 310 4.3 7.8 0.00 0.00 0.00 77 1020.9
20260507090552 54 336 4.3 8.7 0.00 0.00 0.00 77 1020.9
20260507090052 54 313 3.5 8.7 0.00 0.00 0.00 76 1020.9
20260507090040 54 359 4.3 8.7 0.00 0.00 0.00 76 1020.9
20260507085052 54 308 4.3 8.7 0.00 0.00 0.00 76 1020.9
20260507084552 54 309 3.5 6.1 0.00 0.00 0.00 76 1020.9
20260507084052 54 329 3.5 7.8 0.00 0.00 0.00 75 1020.9
20260507083816 54 318 3.5 7.8 0.00 0.00 0.00 75 1020.9
20260507083052 54 336 3.5 6.1 0.00 0.00 0.00 75 1020.9
20260507082554 54 6 3.5 7.0 0.00 0.00 0.00 75 1021.0
20260507082052 54 335 4.3 7.8 0.00 0.00 0.00 75 1021.0
20260507081552 55 339 3.5 7.8 0.00 0.00 0.00 75 1021.0
20260507081052 55 324 3.5 7.8 0.00 0.00 0.00 75 1020.9
20260507080815 55 324 3.5 7.0 0.00 0.00 0.00 76 1020.9
20260507080053 55 330 3.5 7.8 0.00 0.00 0.00 76 1020.9
20260507075812 55 303 3.5 7.8 0.00 0.00 0.00 76 1020.9
20260507075046 55 310 3.5 5.2 0.00 0.00 0.00 77 1021.0
20260507074547 55 336 3.5 7.8 0.00 0.00 0.00 78 1021.0
20260507074047 55 312 3.5 7.8 0.00 0.00 0.00 77 1021.0
20260507073546 55 304 4.3 7.8 0.00 0.00 0.00 78 1020.9
20260507073046 55 7 4.3 7.8 0.00 0.00 0.00 78 1020.9
20260507072547 55 332 3.5 7.0 0.00 0.00 0.00 78 1020.9
20260507072047 55 355 3.5 7.8 0.00 0.00 0.00 78 1020.9
20260507071808 55 322 3.5 7.8 0.00 0.00 0.00 78 1020.8
20260507071047 55 342 3.5 7.8 0.00 0.00 0.00 78 1020.8
20260507070547 55 337 3.5 7.8 0.00 0.00 0.00 78 1020.7
20260507070047 55 344 4.3 7.8 0.00 0.00 0.00 78 1020.8
20260507065809 55 345 4.3 7.8 0.00 0.00 0.00 78 1020.7
20260507065046 55 333 3.5 7.8 0.00 0.00 0.00 78 1020.8
20260507064810 55 328 3.5 7.8 0.00 0.00 0.00 78 1020.8
20260507064308 55 292 4.3 7.8 0.00 0.00 0.00 78 1020.8
20260507063546 55 324 4.3 7.8 0.00 0.00 0.00 78 1020.8
20260507063045 55 326 3.5 7.0 0.00 0.00 0.00 78 1020.8
20260507062546 55 340 3.5 7.0 0.00 0.00 0.00 78 1020.8
20260507062046 55 296 3.5 7.0 0.00 0.00 0.00 78 1020.9
20260507061546 55 355 3.5 7.0 0.00 0.00 0.00 78 1020.9
20260507061045 55 359 3.5 7.8 0.00 0.00 0.00 78 1020.9
20260507060750 55 332 4.3 7.8 0.00 0.00 0.00 78 1020.8
20260507055546 55 326 4.3 8.7 0.00 0.00 0.00 78 1020.8
20260507055046 55 347 5.2 10.4 0.00 0.00 0.00 78 1020.8
20260507054545 55 3 5.2 10.4 0.00 0.00 0.00 78 1020.9
20260507054531 55 336 4.3 8.7 0.00 0.00 0.00 78 1020.9
20260507053545 55 313 4.3 7.8 0.00 0.00 0.00 78 1020.9
20260507053046 55 296 4.3 7.8 0.00 0.00 0.00 78 1020.8
20260507052810 55 333 4.3 9.6 0.00 0.00 0.00 78 1020.8
20260507052046 56 331 5.2 9.6 0.00 0.00 0.00 77 1020.8
20260507051546 56 339 5.2 10.4 0.00 0.00 0.00 77 1020.8
20260507051045 56 324 5.2 10.4 0.00 0.00 0.00 76 1020.8
20260507050546 56 335 4.3 7.8 0.00 0.00 0.00 77 1020.8
20260507050046 56 340 5.2 8.7 0.00 0.00 0.00 76 1020.9
20260507045546 56 358 6.1 10.4 0.00 0.00 0.00 76 1020.9
20260507045045 56 6 6.1 10.4 0.00 0.00 0.00 76 1020.9
20260507044808 56 342 5.2 10.4 0.00 0.00 0.00 76 1020.9
20260507044046 56 358 5.2 10.4 0.00 0.00 0.00 76 1020.9
20260507043545 57 358 5.2 10.4 0.00 0.00 0.00 76 1020.8
20260507043046 57 318 5.2 10.4 0.00 0.00 0.00 76 1020.8
20260507042545 57 348 5.2 9.6 0.00 0.00 0.00 76 1020.7
20260507042046 57 326 5.2 9.6 0.00 0.00 0.00 75 1020.6
20260507041546 57 356 6.1 12.2 0.00 0.00 0.00 75 1020.7
20260507041313 57 333 7.0 12.2 0.00 0.00 0.00 75 1020.6
20260507040546 57 340 6.1 11.3 0.00 0.00 0.00 75 1020.6
20260507040046 58 330 6.1 11.3 0.00 0.00 0.00 75 1020.5
20260507035546 58 339 5.2 11.3 0.00 0.00 0.00 75 1020.4
20260507035045 58 337 4.3 10.4 0.00 0.00 0.00 75 1020.4
20260507034545 58 15 5.2 10.4 0.00 0.00 0.00 75 1020.3
20260507034046 58 340 5.2 10.4 0.00 0.00 0.00 75 1020.2
20260507033546 58 322 5.2 11.3 0.00 0.00 0.00 75 1020.2
20260507033045 58 15 5.2 11.3 0.00 0.00 0.00 75 1020.1
20260507032548 59 339 4.3 8.7 0.00 0.00 0.00 75 1020.0
20260507032049 59 318 5.2 9.6 0.00 0.00 0.00 75 1020.0
20260507031548 59 8 6.1 11.3 0.00 0.00 0.00 74 1019.9
20260507031048 59 12 6.1 11.3 0.00 0.00 0.00 74 1019.8
20260507030812 59 2 5.2 11.3 0.00 0.00 0.00 74 1019.8
20260507030047 60 329 4.3 8.7 0.00 0.00 0.00 74 1019.7
20260507025547 60 0 5.2 10.4 0.00 0.00 0.00 74 1019.6
20260507025047 60 346 5.2 10.4 0.00 0.00 0.00 74 1019.6
20260507024547 60 338 5.2 8.7 0.00 0.00 0.00 73 1019.6
20260507024319 60 337 5.2 10.4 0.00 0.00 0.00 74 1019.5
20260507023547 60 341 5.2 10.4 0.00 0.00 0.00 73 1019.5
20260507023048 61 350 5.2 9.6 0.00 0.00 0.00 73 1019.5
20260507022547 61 350 6.1 9.6 0.00 0.00 0.00 73 1019.4
20260507022047 61 346 6.1 10.4 0.00 0.00 0.00 73 1019.4
20260507021547 62 3 6.1 10.4 0.00 0.00 0.00 72 1019.5
20260507021313 62 331 5.2 10.4 0.00 0.00 0.00 71 1019.5
20260507020547 62 323 5.2 10.4 0.00 0.00 0.00 70 1019.5
20260507020046 63 317 4.3 10.4 0.00 0.00 0.00 70 1019.5
20260507020033 63 0 4.3 8.7 0.00 0.00 0.00 70 1019.6
20260507015307 63 340 5.2 11.3 0.00 0.00 0.00 69 1019.6
20260507014544 63 322 6.1 11.3 0.00 0.00 0.00 69 1019.6
20260507014045 64 345 5.2 9.6 0.00 0.00 0.00 68 1019.6
20260507013545 64 329 5.2 12.2 0.00 0.00 0.00 68 1019.6
20260507013312 64 320 5.2 12.2 0.00 0.00 0.00 68 1019.6
20260507012545 64 339 5.2 9.6 0.00 0.00 0.00 68 1019.6
20260507012307 65 357 5.2 9.6 0.00 0.00 0.00 68 1019.5
20260507011546 65 320 5.2 8.7 0.00 0.00 0.00 68 1019.5
20260507011309 65 317 5.2 7.8 0.00 0.00 0.00 67 1019.5
20260507010546 65 31 5.2 9.6 0.00 0.00 0.00 68 1019.5
20260507010046 65 293 5.2 9.6 0.00 0.00 0.00 68 1019.5
20260507005546 65 305 5.2 9.6 0.00 0.00 0.00 67 1019.5
20260507005046 65 326 5.2 9.6 0.00 0.00 0.00 68 1019.4
20260507004811 66 15 5.2 9.6 0.00 0.00 0.00 69 1019.4
20260507004046 66 323 5.2 7.8 0.00 0.00 0.00 69 1019.4
20260507003546 66 313 5.2 7.8 0.00 0.00 0.00 70 1019.4
20260507003309 66 352 4.3 6.1 0.00 0.00 0.00 70 1019.4
20260507002546 66 45 3.5 7.0 0.00 0.00 0.00 70 1019.3
20260507002045 66 353 3.5 7.8 0.00 0.00 0.00 70 1019.4
20260507001806 66 45 4.3 8.7 0.00 0.00 0.00 70 1019.4
20260507001046 66 36 4.3 8.7 0.00 0.00 0.00 69 1019.3
20260507000547 66 25 4.3 8.7 0.00 0.00 0.00 69 1019.3
20260507000047 66 359 4.3 8.7 0.00 0.00 0.00 68 1019.3
20260506235546 66 344 5.2 9.6 0.00 0.00 0.00 68 1019.3
20260506235046 66 35 5.2 9.6 0.00 0.00 0.00 68 1019.3
20260506234546 67 321 4.3 7.8 0.00 0.00 0.00 66 1019.3
20260506234046 67 331 4.3 7.8 0.00 0.00 0.00 66 1019.3
20260506233546 67 37 4.3 8.7 0.00 0.00 0.00 66 1019.3
20260506233045 67 22 3.5 8.7 0.00 0.00 0.00 66 1019.3
20260506232546 67 10 3.5 6.1 0.00 0.00 0.00 66 1019.4
20260506232045 66 320 3.5 6.1 0.00 0.00 0.00 65 1019.4
20260506231809 66 348 3.5 8.7 0.00 0.00 0.00 66 1019.4
20260506231045 66 0 4.3 8.7 0.00 0.00 0.00 67 1019.4
20260506230814 67 18 3.5 7.0 0.00 0.00 0.00 66 1019.5
20260506230045 67 343 3.5 5.2 0.00 0.00 0.00 66 1019.5
20260506225805 67 308 2.6 5.2 0.00 0.00 0.00 65 1019.6
20260506225045 67 342 2.6 6.1 0.00 0.00 0.00 65 1019.6
20260506224545 67 351 2.6 6.1 0.00 0.00 0.00 65 1019.7
20260506224045 67 9 1.7 3.5 0.00 0.00 0.00 66 1019.7
20260506223546 67 101 1.7 4.3 0.00 0.00 0.00 64 1019.8
20260506223045 66 282 1.7 5.2 0.00 0.00 0.00 65 1019.9
20260506222545 66 314 2.6 5.2 0.00 0.00 0.00 67 1019.9
20260506222044 65 34 3.5 6.1 0.00 0.00 0.00 68 1019.9
20260506221809 66 46 3.5 6.1 0.00 0.00 0.00 68 1019.9
20260506221044 66 349 1.7 6.1 0.00 0.00 0.00 68 1020.0
20260506220543 66 0 1.7 3.5 0.00 0.00 0.00 65 1020.0
20260506220044 66 316 1.7 4.3 0.00 0.00 0.00 66 1020.0
20260506215545 66 332 2.6 5.2 0.00 0.00 0.00 65 1019.9
20260506215045 67 350 2.6 5.2 0.00 0.00 0.00 65 1019.9
20260506214544 67 269 2.6 5.2 0.00 0.00 0.00 66 1019.9
20260506214044 67 16 1.7 7.8 0.00 0.00 0.00 66 1020.0
20260506213543 66 289 2.6 7.8 0.00 0.00 0.00 67 1020.0
20260506213043 65 301 1.7 5.2 0.00 0.00 0.00 68 1020.1
20260506212810 64 292 1.7 3.5 0.00 0.00 0.00 70 1020.2
20260506212044 64 126 1.7 3.5 0.00 0.00 0.00 73 1020.2
20260506211544 64 138 1.7 3.5 0.00 0.00 0.00 71 1020.3
20260506211043 64 1 1.7 4.3 0.00 0.00 0.00 71 1020.4
20260506210543 64 4 2.6 5.2 0.00 0.00 0.00 73 1020.4
20260506210307 64 313 1.7 5.2 0.00 0.00 0.00 73 1020.5
20260506205543 63 344 0.9 2.6 0.00 0.00 0.00 73 1020.5
20260506205042 63 78 1.7 4.3 0.00 0.00 0.00 75 1020.5
20260506204812 63 359 1.7 4.3 0.00 0.00 0.00 73 1020.4
20260506204042 63 38 0.9 3.5 0.00 0.00 0.00 74 1020.4
20260506203543 62 358 1.7 5.2 0.00 0.00 0.00 76 1020.4
20260506203043 62 38 2.6 5.2 0.00 0.00 0.00 75 1020.4
20260506202543 62 42 2.6 5.2 0.00 0.00 0.00 75 1020.4
20260506202041 62 318 3.5 7.0 0.00 0.00 0.00 76 1020.4
20260506201542 61 338 2.6 7.0 0.00 0.00 0.00 76 1020.4
20260506201042 61 338 2.6 5.2 0.00 0.00 0.00 76 1020.4
20260506200543 61 320 3.5 6.1 0.00 0.00 0.00 77 1020.5
20260506200042 61 340 2.6 6.1 0.00 0.00 0.00 77 1020.5
20260506195542 61 8 2.6 5.2 0.00 0.00 0.00 77 1020.6
20260506195043 61 14 3.5 7.0 0.00 0.00 0.00 78 1020.6
20260506194808 60 340 3.5 7.8 0.00 0.00 0.00 78 1020.8
20260506194042 60 34 4.3 7.8 0.00 0.00 0.00 79 1020.8
20260506194027 60 12 3.5 7.0 0.00 0.00 0.00 79 1020.8
20260506193042 60 342 3.5 5.2 0.00 0.00 0.00 78 1020.8
20260506192542 60 346 3.5 6.1 0.00 0.00 0.00 78 1020.7
20260506192043 60 17 3.5 6.1 0.00 0.00 0.00 78 1020.7
20260506191809 60 16 3.5 6.1 0.00 0.00 0.00 78 1020.6
20260506191042 60 25 2.6 5.2 0.00 0.00 0.00 77 1020.6
20260506190542 60 1 1.7 5.2 0.00 0.00 0.00 78 1020.6
20260506190040 60 149 2.6 6.1 0.00 0.00 0.00 77 1020.6
20260506185540 60 351 3.5 7.0 0.00 0.00 0.00 78 1020.6
20260506185040 60 13 3.5 7.0 0.00 0.00 0.00 78 1020.6
20260506184808 60 26 3.5 6.1 0.00 0.00 0.00 77 1020.6
20260506184040 60 305 2.6 5.2 0.00 0.00 0.00 78 1020.6
20260506183540 60 29 1.7 3.5 0.00 0.00 0.00 78 1020.5
20260506183040 60 11 1.7 3.5 0.00 0.00 0.00 78 1020.5
20260506182540 60 112 0.9 3.5 0.00 0.00 0.00 78 1020.6
20260506182041 59 1 1.7 2.6 0.00 0.00 0.00 80 1020.6
20260506181540 59 42 1.7 3.5 0.00 0.00 0.00 79 1020.6
20260506181039 59 259 1.7 4.3 0.00 0.00 0.00 80 1020.6
20260506180539 59 1 2.6 4.3 0.00 0.00 0.00 80 1020.6
20260506180041 59 316 1.7 4.3 0.00 0.00 0.00 79 1020.5
20260506175540 58 338 1.7 5.2 0.00 0.00 0.00 80 1020.5
20260506175039 58 342 2.6 5.2 0.00 0.00 0.00 80 1020.6
20260506174539 59 324 1.7 4.3 0.00 0.00 0.00 79 1020.5
20260506174533 59 275 1.7 3.5 0.00 0.00 0.00 80 1020.5
20260506173540 58 18 1.7 3.5 0.00 0.00 0.00 80 1020.4
20260506173040 58 10 1.7 5.2 0.00 0.00 0.00 80 1020.4
20260506172540 58 32 1.7 5.2 0.00 0.00 0.00 80 1020.3
20260506172039 58 41 1.7 4.3 0.00 0.00 0.00 80 1020.3
20260506171539 58 28 2.6 5.2 0.00 0.00 0.00 80 1020.3
20260506171039 58 49 2.6 5.2 0.00 0.00 0.00 80 1020.3
20260506170540 58 9 3.5 7.0 0.00 0.00 0.00 81 1020.3
20260506170040 58 310 3.5 7.0 0.00 0.00 0.00 82 1020.3
20260506165542 58 3 3.5 6.1 0.00 0.00 0.00 81 1020.4
20260506165042 58 9 2.6 5.2 0.00 0.00 0.00 81 1020.4
20260506164541 58 334 2.6 5.2 0.00 0.00 0.00 81 1020.3
20260506164040 58 352 2.6 5.2 0.00 0.00 0.00 81 1020.3
20260506163539 58 322 2.6 7.0 0.00 0.00 0.00 82 1020.2
20260506163041 58 340 1.7 7.0 0.00 0.00 0.00 81 1020.4
20260506162541 58 25 1.7 3.5 0.00 0.00 0.00 81 1020.2
20260506162041 58 357 1.7 3.5 0.00 0.00 0.00 81 1020.2
20260506161541 57 343 1.7 5.2 0.00 0.00 0.00 82 1020.1
20260506161041 57 242 1.7 5.2 0.00 0.00 0.00 82 1020.1
20260506160541 57 349 1.7 3.5 0.00 0.00 0.00 82 1020.1
20260506160042 57 344 1.7 3.5 0.00 0.00 0.00 82 1019.9
20260506155541 57 5 1.7 3.5 0.00 0.00 0.00 82 1019.8
20260506155041 57 155 0.9 3.5 0.00 0.00 0.00 82 1019.8
20260506154541 56 29 1.7 4.3 0.00 0.00 0.00 83 1019.6
20260506154040 56 105 0.9 4.3 0.00 0.00 0.00 84 1019.7
20260506153806 56 145 1.7 5.2 0.00 0.00 0.00 85 1019.9
20260506153041 56 35 2.6 5.2 0.00 0.00 0.00 85 1020.2
20260506152541 56 338 2.6 5.2 0.00 0.00 0.00 85 1020.3
20260506152041 56 37 3.5 6.1 0.00 0.00 0.00 86 1020.3
20260506151541 55 299 4.3 7.8 0.00 0.00 0.00 86 1020.3
20260506151041 55 315 3.5 7.8 0.00 0.00 0.00 86 1020.3
20260506150804 55 353 4.3 7.8 0.00 0.00 0.00 86 1020.3
20260506150041 55 11 4.3 7.8 0.00 0.00 0.00 86 1020.3
20260506145540 55 330 3.5 7.8 0.00 0.00 0.00 86 1020.2
20260506145041 56 333 3.5 7.8 0.00 0.00 0.00 85 1020.1
20260506144541 56 350 4.3 7.8 0.00 0.00 0.00 85 1020.0
20260506144041 56 343 3.5 7.8 0.00 0.00 0.00 86 1020.1
20260506143800 56 348 3.5 6.1 0.00 0.00 0.00 86 1020.0
20260506143040 56 356 3.5 6.1 0.00 0.00 0.00 86 1019.9
20260506142537 56 325 3.5 5.2 0.00 0.00 0.00 86 1019.7
20260506142038 56 321 2.6 5.2 0.00 0.00 0.00 86 1019.6
20260506141538 56 33 3.5 6.1 0.00 0.00 0.00 87 1019.5
20260506141037 56 9 3.5 6.1 0.00 0.00 0.00 86 1019.5
20260506140538 56 333 2.6 5.2 0.00 0.00 0.00 86 1019.5
20260506140308 56 315 2.6 6.1 0.00 0.00 0.00 86 1019.6
20260506135539 56 333 2.6 6.1 0.00 0.00 0.00 86 1019.5
20260506135039 56 320 1.7 6.1 0.00 0.00 0.00 86 1019.4
20260506134538 56 302 2.6 4.3 0.00 0.00 0.00 86 1019.4
20260506134039 56 336 2.6 5.2 0.00 0.00 0.00 86 1019.3
20260506133539 56 309 2.6 5.2 0.00 0.00 0.00 86 1019.3
20260506133038 56 1 1.7 3.5 0.00 0.00 0.00 86 1019.3
20260506132538 56 301 1.7 3.5 0.00 0.00 0.00 86 1019.2
20260506132038 56 322 1.7 3.5 0.00 0.00 0.00 86 1019.1
20260506131535 56 308 1.7 3.5 0.00 0.00 0.00 86 1019.1
20260506131032 56 302 0.9 2.6 0.00 0.00 0.00 86 1019.0
20260506130532 56 0 0.9 2.6 0.00 0.00 0.00 86 1019.0
20260506130032 56 0 0.9 2.6 0.00 0.00 0.00 86 1019.0
20260506125530 56 316 1.7 4.3 0.00 0.00 0.00 86 1018.9
20260506125029 56 290 2.6 4.3 0.00 0.00 0.00 86 1018.9
20260506124531 56 308 1.7 4.3 0.00 0.00 0.00 86 1018.8
20260506124255 56 322 1.7 3.5 0.00 0.00 0.00 85 1018.8
20260506123531 56 326 1.7 4.3 0.00 0.00 0.00 86 1018.8
20260506123030 56 317 2.6 4.3 0.00 0.00 0.00 85 1018.8
20260506122757 56 320 2.6 6.1 0.00 0.00 0.00 85 1018.9
20260506122258 56 311 3.5 6.1 0.00 0.00 0.00 85 1018.9
20260506121528 56 325 3.5 6.1 0.00 0.00 0.00 85 1018.9
20260506121255 56 319 2.6 7.0 0.00 0.00 0.00 85 1018.9
20260506120527 56 300 3.5 7.0 0.00 0.00 0.00 85 1018.8
20260506120026 56 320 3.5 7.0 0.00 0.00 0.00 85 1018.8
20260506115527 56 335 2.6 6.1 0.00 0.00 0.00 85 1018.7
20260506115255 56 308 2.6 5.2 0.00 0.00 0.00 85 1018.7
20260506114526 56 318 2.6 5.2 0.00 0.00 0.00 85 1018.6
20260506114026 56 326 3.5 6.1 0.00 0.00 0.00 85 1018.5
20260506113527 56 308 3.5 6.1 0.00 0.00 0.00 85 1018.5
20260506113026 56 293 2.6 5.2 0.00 0.00 0.00 84 1018.5
20260506112527 56 326 2.6 4.3 0.00 0.00 0.00 84 1018.5
20260506112252 56 327 2.6 6.1 0.00 0.00 0.00 84 1018.4
20260506111753 56 305 2.6 6.1 0.00 0.00 0.00 84 1018.4
20260506111027 56 293 3.5 6.1 0.00 0.00 0.00 84 1018.3
20260506110530 56 328 3.5 6.1 0.00 0.00 0.00 84 1018.3
20260506110030 56 277 3.5 6.1 0.00 0.00 0.00 84 1018.2
20260506105754 57 305 3.5 6.1 0.00 0.00 0.00 84 1018.1